Home > Time Zones > World Clock > Weather > Norway > Moss > Past weeks

Flag for Norway Weather past 2 weeks in Moss, Norway

Now
50 °F

Sunny.


Feels Like: 46 °F
Forecast: 38 / 62 °F
Wind: 9 mph from Southeast

Location: Rygge


UV Index: 0 (Low)

Visibility: 10 mi


Pressure: 30.36 "Hg

Humidity: 32%

Dew point: 21 °F

Location of MossLocation

Historic Weather in Moss

°F

Moss temperature yesterday

Maximum temperature yesterday: 59 °F (at 2:20 PM)
Minimum temperature yesterday: 43 °F (at 11:50 PM)
Average temperature yesterday: 53 °F

Past Weeks' High & Low Weather Summary

 TemperatureHumidityPressure
High68 °F (Apr 22, 3:20 PM)100% (Apr 9, 11:20 PM)30.51 "Hg (Apr 9, 11:20 PM)
Low30 °F (Apr 16, 2:20 AM)24% (Apr 24, 5:50 PM)29.39 "Hg (Apr 13, 4:50 AM)
Average47 °F66%30.01 "Hg
* Reported Apr 9 7:20 PM — Apr 24 7:50 PM, Moss, Weather by CustomWeather, © 2014

Note: Actual official high and low records may vary slightly from our data, if they occured in-between our weather recording intervals... More about our weather records

Advertising

Historic Weather Conditions — Data for Previous 24 hours

 ConditionsComfort  
Time TempWeatherWind HumidityBarometerVisibility
7:50 PM
Apr 24
52 °FSunny.10 mph30%30.36 "Hg10 mi
7:20 PM54 °FSunny.10 mph30%30.36 "Hg10 mi
6:50 PM55 °FPassing clouds.8 mph26%30.36 "HgN/A
6:20 PM55 °FSunny.10 mph24%30.36 "Hg10 mi
5:50 PM55 °FSunny.10 mph24%30.36 "Hg10 mi
5:20 PM55 °FPassing clouds.7 mph26%30.36 "HgN/A
4:50 PM55 °FPassing clouds.7 mph26%30.39 "HgN/A
4:20 PM55 °FPassing clouds.7 mph26%30.39 "HgN/A
3:50 PM55 °FPassing clouds.9 mph28%30.39 "HgN/A
3:20 PM54 °FPassing clouds.9 mph28%30.42 "HgN/A
2:50 PM55 °FPassing clouds.7 mph33%30.42 "HgN/A
2:20 PM52 °FPassing clouds.12 mph30%30.42 "HgN/A
1:50 PM52 °FPassing clouds.9 mph30%30.45 "HgN/A
1:20 PM52 °FPassing clouds.8 mph32%30.45 "HgN/A
12:50 PM50 °FPassing clouds.8 mph37%30.45 "HgN/A
11:50 AM46 °FPassing clouds.10 mph40%30.48 "HgN/A
11:20 AM48 °FPassing clouds.10 mph40%30.48 "HgN/A
10:50 AM46 °FPassing clouds.10 mph43%30.51 "HgN/A
10:20 AM45 °FSunny.12 mph46%30.51 "Hg10 mi
9:50 AM45 °FSunny.9 mph46%30.51 "Hg10 mi
9:20 AM43 °FSunny.10 mph49%30.51 "Hg10 mi
8:50 AM41 °FSunny.9 mph57%30.51 "Hg10 mi
8:20 AM39 °FSunny.12 mph61%30.51 "Hg10 mi
7:50 AM39 °FSunny.9 mph61%30.51 "Hg10 mi
7:20 AM37 °FSunny.8 mph65%30.51 "Hg10 mi
6:50 AM37 °FSunny.8 mph65%30.51 "Hg10 mi
6:20 AM36 °FClear.6 mph70%30.51 "Hg10 mi
5:50 AM36 °FChilly.6 mph70%30.51 "HgN/A
5:20 AM36 °FChilly.6 mph75%30.51 "HgN/A
4:50 AM37 °FChilly.6 mph70%30.51 "HgN/A
4:20 AM39 °FChilly.8 mph65%30.51 "HgN/A
3:50 AM39 °FChilly.8 mph65%30.51 "HgN/A
3:20 AM39 °FChilly.7 mph65%30.51 "HgN/A
2:50 AM41 °FQuite cool.9 mph61%30.51 "HgN/A
2:20 AM43 °FQuite cool.10 mph57%30.51 "HgN/A
1:50 AM43 °FQuite cool.12 mph57%30.51 "HgN/A
1:20 AM45 °FQuite cool.12 mph49%30.48 "HgN/A
12:50 AM45 °FQuite cool.8 mph53%30.48 "HgN/A
12:20 AM45 °FQuite cool.6 mph53%30.48 "HgN/A
11:50 PM
Apr 23
43 °FClear.5 mph61%30.48 "Hg10 mi
11:20 PM45 °FClear.3 mph53%30.45 "Hg10 mi
10:50 PM46 °FClear.5 mph53%30.45 "Hg10 mi
10:20 PM48 °FClear.5 mph46%30.45 "Hg10 mi
9:50 PM48 °FSunny.3 mph43%30.45 "Hg10 mi
9:20 PM50 °FSunny.7 mph40%30.42 "Hg10 mi
Weather by CustomWeather, © 2014

See weather overview